User: anonymous   Login
Location: Borgo
(42.3939°N, 9.2791°E)
Time: 06:50:23
(UTC+00:00)
Language:

Cosmos 923 Rocket - Orbit

View from above orbital plane
View from above orbital plane
View from above satellite
View from above satellite

Ground track
Ground track

The orbit data is extracted from the following two-line orbital elements,

1 10121U 77059B   21102.38660319  .00000089  00000-0  39405-4 0  9997
2 10121  74.0456  92.5250 0017666 101.0444 259.2697 14.35980697289872
Epoch (UTC): 12 April 2021 09:16:42
Eccentricity: 0.0017666
inclination: 74.0456°
perigee height: 759 km
apogee height: 784 km
right ascension of ascending node: 92.5250°
argument of perigee: 101.0444°
revolutions per day: 14.35980697
mean anomaly at epoch: 259.2697°
orbit number at epoch: 28987

The dashed part of the orbit path shows where the satellite is in the earth's shadow,  

DLR